TimeCDT,TemperatureF,Dew PointF,Humidity,Sea Level PressureIn,VisibilityMPH,Wind Direction,Wind SpeedMPH,Gust SpeedMPH,PrecipitationIn,Events,Conditions,WindDirDegrees,DateUTC
12:15 AM,73.4,64.4,73,30.03,10.0,NE,5.8,-,N/A,,Overcast,40,2013-07-03 05:15:00
12:35 AM,73.4,64.4,73,30.03,10.0,Calm,Calm,-,N/A,,Overcast,0,2013-07-03 05:35:00
12:55 AM,73.4,64.4,73,30.03,10.0,Calm,Calm,-,N/A,,Overcast,0,2013-07-03 05:55:00
1:15 AM,73.4,64.4,73,30.03,10.0,NNE,3.5,-,N/A,,Overcast,30,2013-07-03 06:15:00
1:35 AM,73.4,66.2,78,30.03,10.0,North,3.5,-,N/A,,Overcast,10,2013-07-03 06:35:00
1:55 AM,73.4,62.6,69,30.01,10.0,NNE,4.6,-,N/A,,Scattered Clouds,30,2013-07-03 06:55:00
2:15 AM,71.6,62.6,73,30.01,10.0,North,3.5,-,N/A,,Clear,360,2013-07-03 07:15:00
2:35 AM,71.6,62.6,73,30.01,10.0,Calm,Calm,-,N/A,,Clear,0,2013-07-03 07:35:00
2:55 AM,71.6,64.4,78,30.01,10.0,Calm,Calm,-,N/A,,Partly Cloudy,0,2013-07-03 07:55:00
3:15 AM,69.8,64.4,83,30.01,10.0,North,4.6,-,N/A,,Scattered Clouds,350,2013-07-03 08:15:00
3:35 AM,69.8,64.4,83,30.01,10.0,Calm,Calm,-,N/A,,Mostly Cloudy,0,2013-07-03 08:35:00
3:55 AM,69.8,64.4,83,30.01,10.0,North,3.5,-,N/A,,Mostly Cloudy,10,2013-07-03 08:55:00
4:15 AM,69.8,64.4,83,30.01,9.0,NNE,3.5,-,N/A,,Partly Cloudy,20,2013-07-03 09:15:00
4:35 AM,69.8,64.4,83,30.01,10.0,North,4.6,-,N/A,,Clear,360,2013-07-03 09:35:00
4:55 AM,69.8,64.4,83,30.01,10.0,North,4.6,-,N/A,,Clear,360,2013-07-03 09:55:00
5:15 AM,69.8,62.6,78,30.02,10.0,ENE,3.5,-,N/A,,Partly Cloudy,60,2013-07-03 10:15:00
5:35 AM,68.0,62.6,83,30.03,10.0,NNW,3.5,-,N/A,,Partly Cloudy,340,2013-07-03 10:35:00
5:55 AM,68.0,64.4,88,30.04,10.0,Calm,Calm,-,N/A,,Scattered Clouds,0,2013-07-03 10:55:00
6:15 AM,69.8,64.4,83,30.05,10.0,Calm,Calm,-,N/A,,Mostly Cloudy,0,2013-07-03 11:15:00
6:35 AM,69.8,64.4,83,30.05,9.0,NE,3.5,-,N/A,,Mostly Cloudy,40,2013-07-03 11:35:00
6:55 AM,69.8,64.4,83,30.06,9.0,North,4.6,-,N/A,,Overcast,10,2013-07-03 11:55:00
7:15 AM,69.8,64.4,83,30.06,9.0,NNE,6.9,-,N/A,,Overcast,30,2013-07-03 12:15:00
7:35 AM,69.8,64.4,83,30.05,9.0,North,8.1,-,N/A,,Overcast,350,2013-07-03 12:35:00
7:55 AM,69.8,64.4,83,30.06,10.0,NE,6.9,-,N/A,,Scattered Clouds,40,2013-07-03 12:55:00
8:15 AM,71.6,64.4,78,30.06,10.0,ENE,4.6,-,N/A,,Partly Cloudy,70,2013-07-03 13:15:00
8:35 AM,71.6,66.2,83,30.06,9.0,NE,4.6,-,N/A,,Partly Cloudy,40,2013-07-03 13:35:00
8:55 AM,73.4,66.2,78,30.06,10.0,North,9.2,-,N/A,,Clear,10,2013-07-03 13:55:00
9:15 AM,75.2,66.2,73,30.08,10.0,NE,5.8,-,N/A,,Clear,50,2013-07-03 14:15:00
9:35 AM,75.2,66.2,73,30.07,10.0,NNE,3.5,-,N/A,,Partly Cloudy,30,2013-07-03 14:35:00
9:55 AM,77.0,66.2,69,30.08,10.0,East,4.6,-,N/A,,Partly Cloudy,100,2013-07-03 14:55:00
10:15 AM,77.0,66.2,69,30.08,10.0,East,4.6,-,N/A,,Clear,90,2013-07-03 15:15:00
10:35 AM,78.8,66.2,65,30.08,10.0,Calm,Calm,-,N/A,,Clear,0,2013-07-03 15:35:00
10:55 AM,77.0,66.2,69,30.08,10.0,Calm,Calm,-,N/A,,Clear,0,2013-07-03 15:55:00
11:15 AM,78.8,66.2,65,30.07,10.0,North,6.9,-,N/A,,Clear,10,2013-07-03 16:15:00
11:35 AM,80.6,66.2,61,30.06,10.0,NNE,6.9,-,N/A,,Clear,20,2013-07-03 16:35:00
11:55 AM,80.6,66.2,61,30.06,10.0,NNE,10.4,-,N/A,,Clear,20,2013-07-03 16:55:00
12:15 PM,78.8,66.2,65,30.07,10.0,NE,5.8,-,N/A,,Clear,40,2013-07-03 17:15:00
12:35 PM,80.6,66.2,61,30.06,10.0,ENE,9.2,-,N/A,,Clear,70,2013-07-03 17:35:00
12:55 PM,82.4,66.2,58,30.07,10.0,ENE,9.2,-,N/A,,Clear,60,2013-07-03 17:55:00
1:15 PM,80.6,64.4,58,30.07,10.0,ENE,8.1,-,N/A,,Clear,60,2013-07-03 18:15:00
1:35 PM,82.4,64.4,54,30.05,10.0,East,6.9,-,N/A,,Clear,80,2013-07-03 18:35:00
1:55 PM,82.4,66.2,58,30.04,10.0,NNE,8.1,-,N/A,,Scattered Clouds,30,2013-07-03 18:55:00
2:15 PM,82.4,66.2,58,30.04,10.0,ENE,6.9,-,N/A,,Mostly Cloudy,60,2013-07-03 19:15:00
2:35 PM,82.4,66.2,58,30.04,10.0,East,10.4,-,N/A,,Scattered Clouds,90,2013-07-03 19:35:00
2:55 PM,82.4,66.2,58,30.03,10.0,East,9.2,-,N/A,,Scattered Clouds,80,2013-07-03 19:55:00
3:15 PM,82.4,66.2,58,30.03,10.0,ENE,8.1,-,N/A,,Mostly Cloudy,70,2013-07-03 20:15:00
3:35 PM,80.6,66.2,61,30.02,10.0,ENE,8.1,-,N/A,,Mostly Cloudy,60,2013-07-03 20:35:00
3:55 PM,80.6,66.2,61,30.01,10.0,ENE,6.9,-,N/A,,Mostly Cloudy,60,2013-07-03 20:55:00
4:15 PM,80.6,66.2,61,30.00,10.0,NE,5.8,-,N/A,,Mostly Cloudy,40,2013-07-03 21:15:00
4:35 PM,82.4,66.2,58,29.99,10.0,NE,8.1,-,N/A,,Partly Cloudy,50,2013-07-03 21:35:00
4:55 PM,82.4,66.2,58,30.00,10.0,North,6.9,-,N/A,,Clear,10,2013-07-03 21:55:00
5:15 PM,82.4,66.2,58,30.00,10.0,North,6.9,-,N/A,,Scattered Clouds,10,2013-07-03 22:15:00
5:35 PM,82.4,66.2,58,30.00,10.0,North,5.8,-,N/A,,Scattered Clouds,10,2013-07-03 22:35:00
5:55 PM,84.2,66.2,55,29.99,10.0,NE,6.9,-,N/A,,Partly Cloudy,40,2013-07-03 22:55:00
6:15 PM,82.4,66.2,58,29.99,10.0,ENE,5.8,-,N/A,,Clear,60,2013-07-03 23:15:00
6:35 PM,84.2,64.4,51,29.99,10.0,NE,9.2,-,N/A,,Clear,40,2013-07-03 23:35:00
6:55 PM,82.4,66.2,58,29.99,10.0,ENE,9.2,-,N/A,,Partly Cloudy,60,2013-07-03 23:55:00
7:15 PM,82.4,66.2,58,29.99,10.0,NE,5.8,-,N/A,,Clear,50,2013-07-04 00:15:00
7:35 PM,80.6,66.2,61,29.99,10.0,NE,5.8,-,N/A,,Partly Cloudy,50,2013-07-04 00:35:00
7:55 PM,80.6,66.2,61,30.00,10.0,NNE,4.6,-,N/A,,Scattered Clouds,20,2013-07-04 00:55:00
8:15 PM,78.8,66.2,65,30.01,10.0,ENE,5.8,-,N/A,,Mostly Cloudy,70,2013-07-04 01:15:00
8:35 PM,78.8,66.2,65,30.01,10.0,East,6.9,-,N/A,,Mostly Cloudy,100,2013-07-04 01:35:00
8:55 PM,75.2,66.2,73,30.02,10.0,SE,6.9,-,N/A,,Scattered Clouds,130,2013-07-04 01:55:00
9:15 PM,75.2,66.2,73,30.01,10.0,SE,8.1,-,N/A,,Partly Cloudy,130,2013-07-04 02:15:00
9:35 PM,75.2,66.2,73,30.01,10.0,ESE,6.9,-,N/A,,Clear,120,2013-07-04 02:35:00
9:55 PM,73.4,66.2,78,30.01,10.0,ESE,3.5,-,N/A,,Clear,120,2013-07-04 02:55:00
10:15 PM,73.4,66.2,78,30.03,10.0,Calm,Calm,-,N/A,,Mostly Cloudy,0,2013-07-04 03:15:00
10:35 PM,73.4,66.2,78,30.03,10.0,Calm,Calm,-,N/A,,Overcast,0,2013-07-04 03:35:00
10:55 PM,73.4,66.2,78,30.04,10.0,Calm,Calm,-,N/A,,Overcast,0,2013-07-04 03:55:00
11:15 PM,73.4,66.2,78,30.03,10.0,Calm,Calm,-,N/A,,Overcast,0,2013-07-04 04:15:00
11:35 PM,73.4,66.2,78,30.03,10.0,East,4.6,-,N/A,,Mostly Cloudy,80,2013-07-04 04:35:00
11:55 PM,73.4,66.2,78,30.03,10.0,East,4.6,-,N/A,,Overcast,90,2013-07-04 04:55:00